CSN2119 ZUCK-ZPPP

Flight info

Callsign CSN2119
Flight time N/A
Altitude 33099
Route NUDVO W30 MEBNA
Aircraft A20N/M-SDE2E3FGHIJ3J4J5M1RWXYZ/LB1

Departure

Time N/A
Airport Chongqing Jiangbei International Airport (ZUCK)

Arrival

Time 2026-05-01 07:43
Airport Kunming Changshui International Airport (ZPPP)
Time Latitude Longitude Altitude Speed Heading
2026-05-01 07:23 25.91910 103.21657 16699 ft 334 kts 256°
2026-05-01 07:23 25.91117 103.17511 15934 ft 325 kts 256°
2026-05-01 07:24 25.90651 103.15071 15506 ft 321 kts 256°
2026-05-01 07:24 25.90187 103.12659 15068 ft 319 kts 257°
2026-05-01 07:24 25.89724 103.10265 14603 ft 314 kts 257°
2026-05-01 07:24 25.89428 103.07898 14347 ft 304 kts 262°
2026-05-01 07:25 25.89368 103.07238 14331 ft 310 kts 262°
2026-05-01 07:25 25.89128 103.04757 14154 ft 332 kts 262°
2026-05-01 07:25 25.88875 103.02205 14001 ft 330 kts 262°
2026-05-01 07:25 25.88509 102.99710 13965 ft 326 kts 256°
2026-05-01 07:26 25.87866 102.97296 13932 ft 327 kts 250°
2026-05-01 07:26 25.87107 102.94919 13885 ft 326 kts 250°
2026-05-01 07:26 25.86361 102.92543 13856 ft 326 kts 251°
2026-05-01 07:26 25.85506 102.90217 13773 ft 325 kts 244°
2026-05-01 07:27 25.84389 102.88031 13680 ft 325 kts 239°
2026-05-01 07:27 25.83184 102.85914 13584 ft 325 kts 239°
2026-05-01 07:27 25.81975 102.83779 13509 ft 329 kts 239°
2026-05-01 07:27 25.80657 102.81712 13410 ft 326 kts 232°
2026-05-01 07:28 25.79129 102.79859 13292 ft 326 kts 227°
2026-05-01 07:28 25.77513 102.78069 13222 ft 328 kts 228°
2026-05-01 07:28 25.75909 102.76293 13132 ft 326 kts 227°
2026-05-01 07:28 25.74208 102.74601 13042 ft 329 kts 220°
2026-05-01 07:29 25.72318 102.73171 12959 ft 331 kts 215°
2026-05-01 07:29 25.70347 102.71817 12855 ft 333 kts 215°
2026-05-01 07:29 25.68401 102.70457 12768 ft 329 kts 215°
2026-05-01 07:29 25.66375 102.69248 12698 ft 334 kts 208°
2026-05-01 07:30 25.64198 102.68342 12594 ft 333 kts 200°
2026-05-01 07:30 25.61875 102.68097 12570 ft 344 kts 179°
2026-05-01 07:30 25.59532 102.68836 12539 ft 359 kts 159°
2026-05-01 07:30 25.57522 102.70454 12482 ft 369 kts 138°
2026-05-01 07:31 25.56060 102.72818 12385 ft 378 kts 117°
2026-05-01 07:31 25.54810 102.81503 12073 ft 382 kts 100°
2026-05-01 07:32 25.53864 102.87285 11864 ft 381 kts 105°
2026-05-01 07:32 25.53279 102.90126 11760 ft 376 kts 107°
2026-05-01 07:33 25.52044 102.95779 11571 ft 377 kts 107°
2026-05-01 07:33 25.51435 102.98561 11535 ft 364 kts 107°
2026-05-01 07:33 25.50301 103.03754 11538 ft 331 kts 107°
2026-05-01 07:34 25.49763 103.06175 11526 ft 317 kts 110°
2026-05-01 07:34 25.47346 103.09635 11347 ft 266 kts 162°
2026-05-01 07:34 25.45656 103.10178 11221 ft 245 kts 179°
2026-05-01 07:35 25.43988 103.10460 10973 ft 241 kts 179°
2026-05-01 07:35 25.42334 103.10747 10671 ft 240 kts 178°
2026-05-01 07:35 25.40692 103.11036 10562 ft 241 kts 178°
2026-05-01 07:35 25.39025 103.11329 10535 ft 242 kts 179°
2026-05-01 07:36 25.37369 103.11624 10544 ft 242 kts 178°
2026-05-01 07:36 25.35704 103.11920 10535 ft 243 kts 178°
2026-05-01 07:36 25.34067 103.12053 10535 ft 225 kts 196°
2026-05-01 07:36 25.32724 103.11438 10533 ft 199 kts 218°
2026-05-01 07:37 25.30603 103.09529 10662 ft 199 kts 221°
2026-05-01 07:37 25.29524 103.08586 10676 ft 198 kts 221°
2026-05-01 07:37 25.28443 103.07635 10585 ft 198 kts 222°
2026-05-01 07:38 25.27370 103.06696 10337 ft 195 kts 221°
2026-05-01 07:38 25.26342 103.05798 10155 ft 182 kts 222°
2026-05-01 07:38 25.24513 103.04198 9734 ft 150 kts 223°
2026-05-01 07:39 25.23738 103.03518 9546 ft 135 kts 223°
2026-05-01 07:39 25.23023 103.02889 9381 ft 132 kts 224°
2026-05-01 07:39 25.21556 103.01602 9048 ft 138 kts 222°
2026-05-01 07:40 25.20819 103.00959 8875 ft 133 kts 222°
2026-05-01 07:40 25.20096 103.00325 8716 ft 133 kts 222°
2026-05-01 07:40 25.19373 102.99693 8563 ft 135 kts 221°
2026-05-01 07:40 25.18638 102.99051 8382 ft 137 kts 223°
2026-05-01 07:41 25.17908 102.98411 8223 ft 129 kts 223°
2026-05-01 07:41 25.17206 102.97796 8069 ft 129 kts 224°
2026-05-01 07:41 25.15753 102.96523 7748 ft 143 kts 219°
2026-05-01 07:42 25.14981 102.95862 7537 ft 136 kts 223°
2026-05-01 07:42 25.14253 102.95217 7292 ft 140 kts 220°
2026-05-01 07:42 25.13460 102.94511 7057 ft 147 kts 218°
2026-05-01 07:42 25.12689 102.93845 6898 ft 133 kts 219°
2026-05-01 07:43 25.12111 102.93334 6899 ft 78 kts 218°
2026-05-01 07:43 25.11811 102.93075 6900 ft 22 kts 218°
2026-05-01 07:43 25.11613 102.92920 6907 ft 16 kts 201°
2026-05-01 07:44 25.11403 102.92863 6917 ft 14 kts 190°
2026-05-01 07:44 25.11231 102.92831 6913 ft 9 kts 166°
2026-05-01 07:45 25.11184 102.92874 6909 ft 10 kts 128°
2026-05-01 07:45 25.11137 102.92938 6903 ft 11 kts 128°
2026-05-01 07:45 25.11085 102.93010 6903 ft 5 kts 128°
2026-05-01 07:45 25.11083 102.93011 6903 ft 0 kts 139°
2026-05-01 07:47 25.11050 102.92996 6903 ft 13 kts 236°
2026-05-01 07:47 25.10956 102.92913 6903 ft 23 kts 231°
2026-05-01 07:47 25.10881 102.92888 6903 ft 1 kts 152°
2026-05-01 07:48 25.10803 102.93053 6902 ft 18 kts 151°
2026-05-01 07:48 25.10702 102.93088 6901 ft 15 kts 162°
2026-05-01 07:48 25.10626 102.93114 6900 ft 11 kts 163°
2026-05-01 07:49 25.10588 102.93124 6900 ft 1 kts 174°
2026-05-01 07:49 25.10548 102.93116 6900 ft 5 kts 214°
2026-05-01 07:49 25.10534 102.93093 6900 ft 0 kts 244°
2026-05-01 07:50 25.10532 102.93089 6900 ft 1 kts 244°
2026-05-01 07:50 25.10527 102.93076 6900 ft 0 kts 245°
2026-05-01 07:52 25.10519 102.93056 6900 ft 3 kts 244°
2026-05-01 07:52 25.10513 102.93044 6901 ft 0 kts 244°